User: anonymous   Login
Location: Columbia
(38.9520°N, 92.3340°W)
Time: 04:05:21
(UTC-06:00)
Language:

Cosmos 2100 Rocket - Orbit

View from above orbital plane
View from above orbital plane
View from above satellite
View from above satellite

Ground track
Ground track

The orbit data is extracted from the following two-line orbital elements,

1 20805U 90083B   16038.21184008  .00000135  00000-0  12349-3 0  9998
2 20805  82.9343  69.1669 0030095 341.6566  88.4913 13.75795834275202
Epoch (UTC): 07 February 2016 05:05:02
Eccentricity: 0.0030095
inclination: 82.9343°
perigee height: 956 km
apogee height: 1001 km
right ascension of ascending node: 69.1669°
argument of perigee: 341.6566°
revolutions per day: 13.75795834
mean anomaly at epoch: 88.4913°
orbit number at epoch: 27520

The dashed part of the orbit path shows where the satellite is in the earth's shadow,  

DLR